Wind_Speed
40 43 43 43 44 45 44 44 45 46 46 47 46 44 45 45 44 43 43 44 44 42 42 41 38 37 38 37 36 35 35 34 34 34 33 33 33 33 33 33 33 33 34
39 40 42 41 42 43 43 44 44 45 45 46 47 47 45 45 45 44 43 43 44 43 43 42 41 39 37 37 37 37 36 35 35 35 35 35 34 34 34 34 33 34 35
37 38 40 40 41 42 42 43 44 45 46 45 47 48 48 46 46 45 44 45 45 44 43 42 42 41 39 38 37 37 37 36 37 37 37 37 36 35 35 35 35 35 35
33 36 38 40 41 42 42 43 43 44 45 46 46 47 47 47 46 45 44 45 46 46 45 44 42 42 41 38 37 38 38 37 37 38 38 38 38 37 36 36 37 37 37
29 32 35 37 39 41 42 43 43 43 44 45 45 45 45 46 45 45 45 46 46 46 45 45 44 42 41 40 39 37 37 37 37 38 38 38 38 38 38 37 37 38 38
27 29 32 35 37 40 41 42 43 44 45 45 45 46 45 45 46 46 46 46 47 47 45 45 45 44 42 41 40 39 39 39 38 38 38 38 38 38 38 38 38 39 38
25 27 29 32 34 37 40 41 42 43 45 45 45 46 46 47 46 47 46 46 47 47 46 47 46 46 44 43 42 40 40 39 38 38 37 37 37 38 39 39 39 39 39
24 27 28 30 32 34 37 39 41 42 44 44 44 45 46 48 47 47 46 45 45 46 46 46 46 46 45 43 42 41 40 40 38 37 37 37 37 38 38 38 39 39 38
24 26 28 29 30 32 34 37 38 39 41 43 44 44 45 46 47 47 46 46 45 46 45 45 47 47 46 44 42 40 40 40 39 38 37 36 37 38 38 39 40 39 38
25 26 27 29 30 32 33 35 36 37 39 41 43 44 44 44 45 47 46 45 45 46 46 45 45 46 45 45 43 42 41 40 40 38 36 35 36 36 37 38 38 37 37
26 25 26 28 30 32 33 33 34 36 37 39 40 42 43 43 44 44 45 45 45 44 45 43 44 44 44 43 44 44 43 42 42 40 39 38 37 36 36 36 36 37 38
26 26 27 27 28 30 32 33 33 34 36 37 38 40 42 42 42 43 44 44 45 43 44 45 43 43 43 43 43 43 42 43 42 42 41 39 39 37 35 35 36 36 37
24 25 27 28 28 28 30 31 33 33 34 35 36 38 40 40 40 40 42 43 43 43 43 44 44 43 43 43 43 42 41 41 41 41 40 40 39 38 36 36 36 37 37
23 24 26 27 28 28 29 30 32 33 33 33 34 35 37 39 38 39 40 41 42 43 42 42 43 43 43 44 44 43 41 40 40 40 40 39 39 38 37 38 38 38 37
23 24 25 26 26 26 28 29 30 31 32 33 33 34 36 38 39 39 39 40 41 42 42 42 42 42 42 43 43 43 41 41 41 40 39 39 38 38 38 39 39 39 38
23 23 24 25 26 26 27 28 29 30 31 32 32 33 34 35 37 37 37 38 39 40 41 41 40 39 39 40 41 41 41 41 40 40 40 39 39 38 38 38 40 40 39
24 24 23 24 25 26 27 26 27 28 29 30 31 32 33 33 34 35 36 36 37 37 38 37 37 37 37 38 39 39 39 40 40 40 40 39 39 39 39 38 39 39 39
24 23 23 24 24 25 26 26 26 26 27 28 29 30 31 32 33 33 33 35 35 35 35 35 37 37 37 37 38 38 39 39 39 38 38 38 38 39 38 38 37 37 37
23 23 24 25 25 25 25 26 25 25 25 26 27 28 30 31 32 32 32 33 33 33 34 35 36 37 37 36 36 36 37 38 38 38 37 35 35 36 37 36 36 35 35
21 21 22 23 25 25 25 26 26 25 26 26 27 28 28 29 31 31 31 32 33 33 33 34 34 35 36 35 34 35 35 36 37 36 36 34 34 34 34 35 36 35 34
21 21 21 22 23 24 25 25 25 25 25 26 25 25 26 27 28 29 29 31 32 32 32 33 33 33 33 34 34 34 34 34 35 35 34 34 33 33 34 34 33 32 32
20 20 20 21 22 23 24 25 25 24 24 25 25 25 26 26 27 28 28 29 30 31 32 32 32 32 33 33 34 35 35 33 33 34 34 34 33 33 33 32 31 31 31
18 18 19 20 21 22 22 23 24 24 24 24 24 25 26 27 27 27 28 28 29 30 30 31 31 31 32 33 33 34 35 34 33 33 33 33 32 31 30 30 29 29 30
17 17 18 18 19 19 20 20 21 23 23 24 24 24 25 26 26 27 28 28 29 29 30 30 30 30 30 31 31 32 33 33 33 32 32 32 31 30 30 30 29 28 28
16 17 17 18 19 19 19 20 21 21 22 23 24 24 24 25 26 26 26 26 27 28 29 29 29 30 30 29 29 30 30 30 30 31 31 31 30 29 29 29 29 29 28
16 16 17 17 18 18 18 19 20 20 21 22 23 23 23 24 24 24 25 25 25 26 27 28 28 28 29 28 28 29 29 29 30 30 31 31 30 29 28 28 29 29 29
Wind_Direction
244 242 241 240 239 239 239 239 239 239 239 239 239 241 242 243 243 243 246 247 246 246 246 248 250 250 251 252 254 256 258 258 257 258 259 262 264 264 265 267 269 271 275
245 243 241 241 239 238 238 238 238 238 238 239 239 240 243 243 244 245 245 246 244 244 245 247 248 249 250 252 255 255 255 256 256 258 260 262 262 263 266 267 267 270 274
247 245 241 240 240 239 238 239 239 240 240 241 241 242 243 245 245 245 244 244 244 244 244 246 248 250 251 254 254 255 254 254 255 257 260 262 263 264 266 267 268 271 274
249 246 242 240 240 240 239 240 241 241 241 242 242 243 244 245 245 243 242 243 244 244 245 246 249 250 253 254 254 255 254 254 255 257 259 262 264 266 267 269 270 272 274
250 246 243 243 242 241 241 241 241 240 241 242 243 243 244 245 245 244 242 242 244 245 245 247 249 250 252 253 254 255 255 255 257 259 260 262 265 267 268 269 271 272 274
251 250 247 245 244 243 242 242 241 241 242 243 244 244 245 246 245 244 242 243 245 245 246 248 247 249 252 254 256 257 257 257 257 258 260 262 265 267 268 269 271 272 275
254 251 249 246 244 244 243 243 242 242 243 244 245 245 246 246 246 244 242 243 245 245 246 247 247 249 250 253 255 257 256 257 257 257 259 263 265 266 268 270 271 273 275
258 253 250 247 245 245 245 244 243 244 244 244 246 247 247 245 244 244 243 244 244 244 247 248 248 248 251 253 254 255 255 255 256 258 259 262 264 266 268 270 272 274 274
259 256 250 247 248 248 246 246 247 247 247 246 247 246 245 245 243 242 242 244 245 245 247 248 248 249 249 250 251 252 253 252 255 257 257 261 264 267 270 272 273 273 274
262 257 253 251 250 249 249 250 250 250 249 248 247 245 244 244 242 241 242 245 246 246 246 247 249 249 248 249 249 251 251 253 254 256 258 261 263 266 271 272 272 274 276
264 260 256 253 255 253 252 253 253 252 250 248 248 246 245 244 243 243 245 246 246 246 246 247 247 247 248 249 250 251 251 254 255 256 259 261 263 267 269 269 270 273 277
263 259 256 255 256 257 256 256 256 255 252 250 248 248 247 246 245 244 245 246 246 246 246 246 246 246 247 248 250 250 253 255 255 256 259 261 263 265 266 267 269 273 277
263 258 257 257 259 259 259 258 258 257 255 251 249 247 247 246 244 243 244 245 246 247 247 247 247 246 247 248 249 250 253 254 254 254 257 259 261 262 265 267 269 273 277
264 260 259 260 260 261 261 260 260 260 257 253 249 248 247 244 244 244 246 247 247 247 247 246 247 247 247 248 250 250 251 251 253 254 257 259 261 262 264 267 270 273 276
266 259 257 260 262 262 262 263 262 261 258 253 250 249 248 246 246 246 247 248 248 247 246 246 247 247 247 248 250 251 251 252 252 254 256 259 261 263 264 266 269 271 274
268 261 257 260 260 261 263 264 262 261 259 253 249 248 248 248 248 248 248 249 249 248 247 246 245 246 247 248 250 251 251 251 251 252 256 260 261 264 266 267 269 271 273
270 265 262 260 259 260 263 265 261 261 258 254 251 249 249 249 248 248 250 248 248 247 246 244 244 246 248 248 249 251 251 251 251 252 255 260 262 263 266 268 270 271 274
273 269 265 262 261 260 262 262 260 258 257 254 252 250 247 246 247 248 247 246 245 244 244 247 245 247 249 250 250 250 251 251 251 253 255 258 260 261 265 268 271 272 273
273 270 267 265 264 262 260 259 259 258 255 253 252 250 248 247 246 246 246 245 244 244 246 247 247 248 250 252 251 249 249 249 250 252 255 258 259 260 264 266 269 271 273
273 272 271 266 264 264 262 261 260 260 258 256 254 252 250 247 246 246 247 246 245 245 245 245 247 250 251 250 249 249 248 248 249 251 254 257 259 260 262 265 268 270 273
273 272 272 269 268 268 267 265 264 262 258 256 255 254 251 248 246 246 246 246 246 246 245 245 248 250 250 250 249 247 247 248 250 252 253 255 257 260 262 266 267 269 271
275 274 273 271 269 269 269 267 264 262 258 254 254 253 248 246 246 247 248 248 247 246 244 244 246 247 247 248 249 247 247 249 250 252 254 256 258 261 264 266 267 268 270
279 278 275 271 271 269 271 270 264 260 258 254 253 252 248 248 249 248 249 249 247 246 244 245 246 246 246 247 248 247 247 249 251 254 256 258 260 262 263 264 266 267 269
282 281 279 274 272 271 270 268 265 258 256 254 253 253 250 249 249 249 249 249 247 246 245 245 245 244 244 245 247 247 248 250 252 254 255 257 259 262 262 264 265 267 270
283 283 281 275 273 272 269 267 264 259 255 254 252 251 251 249 248 247 248 248 248 248 246 245 245 244 244 245 247 248 249 250 251 252 253 255 259 261 263 263 263 265 270
284 283 284 281 277 273 272 269 264 260 256 252 250 250 249 248 247 248 249 249 248 247 246 244 244 244 245 246 248 249 251 252 253 254 255 257 259 259 260 262 263 265 268
Height
5670 5673 5676 5680 5683 5688 5692 5696 5700 5705 5709 5713 5717 5720 5723 5726 5730 5732 5736 5738 5741 5743 5746 5749 5752 5754 5757 5759 5761 5763 5764 5766 5767 5769 5771 5771 5772 5773 5773 5774 5774 5774 5773
5659 5663 5666 5670 5674 5678 5682 5686 5690 5694 5698 5702 5706 5710 5712 5715 5719 5722 5725 5728 5731 5734 5737 5740 5743 5745 5748 5750 5752 5754 5756 5758 5759 5761 5763 5764 5765 5765 5766 5766 5766 5766 5765
5650 5653 5656 5660 5664 5668 5672 5676 5680 5684 5688 5692 5696 5699 5702 5704 5708 5712 5715 5719 5721 5725 5728 5731 5734 5736 5739 5741 5743 5745 5747 5749 5750 5752 5754 5755 5756 5758 5759 5758 5758 5758 5757
5641 5644 5647 5651 5655 5659 5662 5667 5670 5674 5678 5682 5685 5689 5692 5695 5698 5702 5705 5709 5712 5715 5719 5722 5725 5728 5730 5732 5734 5736 5738 5740 5742 5743 5745 5746 5748 5749 5750 5751 5750 5749 5749
5634 5636 5639 5642 5646 5649 5653 5657 5661 5664 5668 5672 5675 5679 5682 5684 5687 5691 5695 5699 5702 5705 5709 5712 5715 5718 5721 5723 5725 5727 5728 5731 5733 5734 5736 5737 5738 5739 5740 5742 5742 5741 5740
5627 5629 5631 5634 5637 5640 5644 5647 5651 5654 5658 5661 5665 5668 5671 5673 5677 5680 5684 5688 5692 5695 5699 5702 5706 5709 5711 5714 5716 5718 5720 5722 5723 5725 5726 5728 5729 5730 5731 5732 5732 5732 5731
5621 5622 5624 5626 5629 5632 5635 5638 5641 5645 5648 5651 5654 5658 5660 5663 5666 5670 5674 5678 5682 5685 5689 5692 5696 5699 5702 5704 5707 5709 5711 5713 5714 5716 5717 5719 5720 5721 5722 5722 5723 5723 5722
5614 5615 5617 5618 5621 5624 5627 5629 5632 5635 5638 5641 5644 5647 5649 5653 5656 5660 5664 5667 5671 5675 5679 5682 5685 5689 5692 5694 5697 5699 5701 5704 5705 5707 5709 5710 5711 5712 5712 5712 5713 5713 5712
5608 5609 5610 5612 5614 5616 5619 5621 5623 5625 5628 5630 5633 5636 5639 5642 5646 5650 5654 5657 5661 5665 5668 5672 5675 5678 5681 5684 5687 5689 5692 5694 5696 5698 5699 5701 5702 5703 5703 5703 5703 5703 5702
5602 5602 5604 5606 5608 5609 5611 5612 5614 5616 5618 5620 5622 5625 5628 5631 5635 5639 5643 5647 5651 5654 5658 5661 5664 5667 5671 5674 5677 5679 5682 5684 5686 5688 5689 5691 5693 5694 5694 5694 5693 5693 5692
5597 5597 5598 5599 5600 5601 5603 5604 5605 5606 5609 5611 5613 5615 5618 5621 5625 5629 5633 5637 5640 5644 5648 5651 5654 5657 5660 5663 5666 5669 5671 5674 5676 5678 5680 5682 5683 5684 5685 5684 5684 5684 5683
5591 5591 5592 5592 5593 5595 5595 5596 5597 5598 5599 5601 5603 5606 5609 5612 5615 5619 5623 5626 5630 5633 5637 5640 5643 5646 5650 5653 5656 5659 5662 5665 5667 5669 5671 5672 5674 5675 5675 5675 5675 5675 5674
5584 5584 5585 5585 5586 5587 5587 5588 5588 5589 5590 5591 5594 5596 5599 5603 5606 5609 5613 5616 5620 5623 5626 5630 5633 5637 5640 5643 5646 5649 5652 5655 5657 5659 5661 5663 5664 5666 5666 5666 5666 5665 5664
5578 5577 5578 5578 5579 5579 5579 5580 5580 5580 5581 5582 5585 5587 5590 5594 5597 5600 5603 5606 5610 5613 5617 5620 5624 5627 5631 5634 5637 5640 5642 5645 5648 5649 5651 5653 5655 5656 5656 5657 5657 5656 5655
5571 5571 5571 5571 5571 5572 5572 5572 5572 5572 5573 5574 5577 5579 5582 5585 5588 5591 5594 5597 5600 5604 5607 5610 5614 5617 5621 5624 5627 5630 5633 5635 5638 5640 5642 5644 5645 5646 5647 5647 5647 5647 5646
5564 5564 5564 5564 5565 5565 5565 5565 5564 5565 5565 5567 5569 5571 5574 5576 5579 5582 5585 5588 5591 5594 5598 5601 5605 5608 5611 5614 5617 5620 5623 5625 5628 5630 5633 5634 5636 5636 5637 5638 5638 5637 5637
5558 5558 5558 5558 5558 5558 5558 5558 5557 5557 5558 5559 5561 5564 5566 5568 5571 5573 5576 5579 5582 5585 5589 5592 5596 5599 5601 5605 5607 5610 5613 5616 5618 5621 5623 5625 5626 5627 5627 5628 5628 5628 5627
5551 5551 5551 5551 5551 5551 5551 5551 5551 5551 5552 5553 5555 5557 5559 5561 5563 5565 5568 5571 5574 5577 5580 5583 5586 5589 5592 5595 5598 5601 5604 5606 5609 5611 5613 5615 5616 5617 5618 5619 5619 5618 5618
5544 5544 5544 5544 5544 5544 5544 5545 5545 5545 5545 5547 5548 5550 5552 5554 5555 5558 5560 5563 5565 5568 5571 5575 5578 5580 5583 5586 5589 5592 5594 5597 5600 5602 5604 5606 5607 5608 5609 5610 5610 5610 5609
5537 5537 5536 5536 5536 5536 5537 5537 5537 5538 5539 5540 5541 5543 5544 5546 5548 5550 5552 5555 5557 5560 5563 5566 5569 5572 5575 5578 5580 5583 5586 5589 5591 5593 5595 5597 5598 5598 5599 5600 5601 5601 5600
5531 5530 5529 5529 5529 5529 5529 5530 5530 5530 5531 5533 5534 5535 5537 5539 5541 5543 5545 5547 5550 5553 5555 5558 5561 5564 5566 5569 5571 5574 5577 5579 5582 5584 5585 5587 5588 5589 5590 5591 5591 5591 5591
5524 5523 5523 5522 5522 5522 5522 5522 5522 5523 5524 5525 5527 5528 5530 5532 5534 5536 5538 5540 5542 5545 5547 5550 5553 5555 5558 5561 5563 5565 5568 5570 5573 5575 5577 5578 5579 5580 5581 5582 5582 5582 5582
5518 5517 5516 5516 5515 5515 5515 5515 5515 5516 5517 5518 5520 5521 5523 5524 5526 5528 5530 5532 5534 5537 5539 5542 5545 5547 5550 5552 5554 5557 5559 5561 5564 5566 5568 5569 5571 5572 5572 5573 5573 5573 5573
5513 5512 5510 5510 5509 5509 5509 5508 5509 5509 5510 5512 5513 5514 5515 5517 5519 5521 5522 5524 5527 5529 5531 5534 5537 5539 5542 5544 5546 5548 5550 5553 5555 5557 5558 5560 5562 5563 5564 5565 5565 5565 5566
5507 5506 5505 5504 5503 5503 5503 5502 5502 5503 5504 5505 5506 5507 5508 5510 5511 5513 5515 5517 5519 5521 5524 5526 5529 5531 5534 5536 5538 5540 5542 5544 5546 5548 5550 5552 5553 5555 5556 5557 5557 5557 5558
5502 5501 5500 5499 5498 5497 5497 5496 5496 5497 5497 5498 5499 5500 5502 5503 5504 5506 5508 5509 5512 5514 5515 5518 5520 5523 5525 5527 5530 5532 5534 5536 5538 5540 5542 5544 5545 5547 5548 5549 5549 5549 5550